STARLINK-2537, 48301

Orbit data source: Space-Track

STARLINK-2537, 48301 is a payload satellite owned by SpaceX/Seattle (US) in LEO that was launched on Thu, 29 Apr 2021 UTC via an FALCON 9 launch vehicle from the Air Force Eastern Test Range (AFETR). Payloads include a variety of satellites, spacecraft, and rockets equipped with specific instruments for various scientific and technological missions. These include communications satellites like Starlink; space stations such as the ISS; scientific satellites like the Hubble; Earth observation satellites from companies like Planet Labs, Umbra, and HawkEye 360; GPS; miniature CubeSats for education and research; and military/defense satellites.

Loading next visibility...
STARLINK-2537 details
Identifier
48301, 2021-036AB
Orbit
LEO
Last TLE update15 hours ago
Origin
Flag of USSpaceX/Seattle (US)
ManufacturerSpaceX/Seattle
MissionOperational Commercial Communications
Bus & MotorSTARLINK, Unknown motor
Mass260 kg wet, ~248 kg dry
Launch date (UTC)
2021-04-29 (4 years ago)
Launch vehicle
FALCON 9
Launch site
Air Force Eastern Test Range (AFETR)
Object type
Payload
Rocket body
Debris
Shape & HBRBox + 1 Pan, 8.86 m
Radar Cross Section13.562 m², Large (>1 m²)

Expand to show TLE details & history

TLE from 15 hours ago
0 STARLINK-2537
1 48301U 21036AB  25035.84421248  .00000419  00000-0  47046-4 0  9995
2 48301  53.0564  77.6136 0001455  92.6145 267.5010 15.06395949208780
Epoch: 2025-02-04T20:15Z
Definitive object data (Epoch: 2025-02-04T20:15:39.958Z)
Latitude-0.00006°
Longitude-1.54661°
Altitude548.147 km
Speed7.589 km/s
True Right ascension05h 10m 27s
True Declination0° 00' 00"
Sunlit
Object was in full shadow at TLE epoch
Visualization TLE readout
Latitude-48.42379°
Longitude-126.96624°
Altitude564.749 km
Speed7.578 km/s
Apparent Right ascension23h 21m 49s
Apparent Declination-50° 33' 31"
Sunlit
Object is in daylight
Visualization observer readout
Local Sidereal Time13:44:36
Azimuth125.178° SE
Elevation-63.033°
Doppler factor1
Orbital elements
Apogee altitude548.502 km
Perigee altitude546.487 km
Semi-major axis6,925.631 km
Eccentricity0.0001455
Inclination53.0564°
RAAN77.6136°
Arg. of periapsis92.6145°
True anomaly267.48434°
Mean anomaly267.501°
Eccentric anomaly267.49267°
Mean motion3.76577 °/min
BSTAR0.000047046
Orbital period95.6 mins
Loading maneuver chart data...
Loading historical data...
Loading historical data...
Loading historical data...
Loading historical data...
Loading historical data...
Loading historical data...
Loading historical data...

STARLINK-2537 Visibility forecast

Observer location: undefined°, undefined

Span
Click to sort rows by Start time (UTC) header in descending order
Start Az.
Max El. time (UTC)
Max El. Az.
Max El.
End time (UTC)
End Az.
7 mins2025-02-05 12:42:33.837Z297.939° NW2025-02-05 12:45:33.837Z228.517° WSW38.773°2025-02-05 12:49:33.837Z147.837° SSE
5 mins2025-02-06 04:16:33.837Z173.669° S2025-02-06 04:18:33.837Z128.963° SE25.245°2025-02-06 04:21:33.837Z74.691° E
6 mins2025-02-06 05:55:33.837Z266.019° W2025-02-06 05:57:33.837Z313.183° NW33.503°2025-02-06 06:01:33.837Z38.474° NE
5 mins2025-02-06 10:57:33.837Z338.313° N2025-02-06 10:59:33.837Z24.869° NE28.894°2025-02-06 11:02:33.837Z89.205° E
|